CZ-3A DEB, 36966

Orbit data source: Space-Track

CZ-3A DEB, 36966 is space debris in HEO originally from a launch on Fri, 02 Feb 2007 UTC launched from the Xichang Space Center, China (XSC). Debris objects in space refer to the collection of defunct objects orbiting the Earth. Examples of debris include non-operational satellites, rocket bodies, and fragments generated from explosions, collisions, or faulty payload assembly.

Loading next visibility...
CZ-3A DEB details
Identifier
36966, 2007-003AC
Orbit
HEO
Last TLE update6 months ago
Origin
Flag of CNCNSA (CN / PRC)
ManufacturerUnknown
MissionSpacecraft
Bus & MotorUnknown
MassUnknown
Launch date (UTC)
2007-02-02 (18 years ago)
Launch vehicleUnknown
Launch site
Xichang Space Center, China (XSC)
Object type
Payload
Rocket body
Debris
Shape & HBRUnknown
Radar Cross SectionMedium (>0.1 m² and <1 m²)

Expand to show TLE details & history

TLE from 6 months ago
0 CZ-3A DEB
1 36966U 07003AC  24183.39007069 -.00000107  00000-0  16891-1 0  9997
2 36966  24.3223  99.8939 7348744 231.3656 335.0213  1.89676484 74964
Epoch: 2024-07-01T09:21Z
Definitive object data (Epoch: 2024-07-01T09:21:42.107Z)
Latitude21.45355°
Longitude159.35686°
Altitude11,637.452 km
Speed5.458 km/s
True Right ascension14h 38m 49s
True Declination21° 24' 26"
Sunlit
Object was in daylight at TLE epoch
Visualization TLE readout
Latitude16.82538°
Longitude131.50754°
Altitude41,092.516 km
Speed1.527 km/s
Apparent Right ascension12h 27m 07s
Apparent Declination11° 21' 45"
Sunlit
Object is in daylight
Visualization observer readout
Local Sidereal Time20:46:27
Azimuth302.387° NW
Elevation-17.644°
Doppler factor1
Orbital elements
Apogee altitude41,454.168 km
Perigee altitude931.654 km
Semi-major axis27,571.048 km
Eccentricity0.7348744
Inclination24.3223°
RAAN99.8939°
Arg. of periapsis231.3656°
True anomaly245.85191°
Mean anomaly335.0213°
Eccentric anomaly297.76325°
Mean motion0.47409 °/min
BSTAR0.016891
Orbital period759.35 mins
Loading maneuver chart data...
Loading historical data...
Loading historical data...
Loading historical data...
Loading historical data...
Loading historical data...
Loading historical data...
Loading historical data...

CZ-3A DEB Visibility forecast

Observer location: undefined°, undefined

Span
Click to sort rows by Start time (UTC) header in descending order
Start Az.
Max El. time (UTC)
Max El. Az.
Max El.
End time (UTC)
End Az.
47 mins2024-12-27 03:24:28.604Z126.033° SE2024-12-27 03:35:28.604Z103.449° ESE12.353°2024-12-27 04:11:28.604Z81.128° E
579 mins2024-12-27 05:13:28.604Z75.81° E2024-12-27 12:28:28.604Z128.332° SE34.22°2024-12-27 14:52:28.604Z136.286° SSE
|